Location: Unspecified
(0.0000°N, 0.0000°E)
Time: 17:26:51
(UTC+00:00)

Vanguard 1 Rocket - Visible Passes

Search period start: 01 May 2016 00:00
Search period end: 11 May 2016 00:00
Orbit: 651 x 4225 km, 34.3° (Epoch: 30 April)

Date Brightness Start Highest point End Pass type
(mag) Time Alt. Az. Time Alt. Az. Time Alt. Az.
02 May 11.1 04:27:39 10° N 04:32:58 12° NNE 04:39:25 10° NE visible
02 May 9.4 19:49:19 10° SSW 19:50:46 14° S 19:50:46 14° S visible
03 May 9.3 18:39:03 10° S 18:41:22 11° SSE 18:43:23 10° SE visible
04 May 11.1 04:29:59 10° N 04:37:11 15° NNE 04:46:35 10° ENE visible
04 May 8.8 19:51:26 10° SSW 19:54:38 23° SSW 19:54:38 23° SSW visible
05 May 8.9 18:39:57 10° SSW 18:45:18 18° SSE 18:47:59 14° SE visible
06 May 11.1 04:32:18 10° N 04:41:01 19° NE 04:53:14 10° ENE visible
06 May 8.1 19:54:00 10° SW 19:58:43 38° SSW 19:58:43 38° SSW visible
07 May 8.5 18:41:52 10° SSW 18:49:04 29° SSE 18:52:11 18° ESE visible
08 May 11.0 04:34:41 10° N 04:44:29 23° NE 04:59:11 10° E visible
08 May 7.4 19:56:54 10° SW 20:03:03 66° WSW 20:03:03 66° WSW visible
09 May 11.0 03:27:54 10° NNE 03:30:55 11° NNE 03:34:22 10° NE visible
09 May 8.0 18:44:11 10° SW 18:52:42 45° SSE 18:56:35 18° E visible
10 May 10.8 04:37:08 10° NNW 04:47:37 29° NE 05:04:26 10° E visible
10 May 7.7 20:00:10 10° WSW 20:07:01 51° NW 20:07:33 49° NNW visible
